Location: York
(31.8935°S, 116.7682°E)
Time: 23:07:18
(UTC+08:00)

Hubble Space Telescope - Visible Passes

Search period start: 15 May 2021 00:00
Search period end: 25 May 2021 00:00
Orbit: 535 x 539 km, 28.5° (Epoch: 14 May)

Date Brightness Start Highest point End Pass type
(mag) Time Alt. Az. Time Alt. Az. Time Alt. Az.
15 May 3.0 18:03:01 10° N 18:05:18 14° NNE 18:07:37 10° ENE visible
15 May 2.9 19:42:10 10° NW 19:43:55 22° NW 19:43:55 22° NW visible
16 May 2.8 17:51:27 10° NNW 17:54:17 18° NNE 17:57:08 10° ENE visible
16 May 2.4 19:31:07 10° WNW 19:33:39 30° NW 19:33:39 30° NW visible
17 May 1.8 19:20:05 10° WNW 19:23:21 41° NNW 19:23:21 41° NNW visible
18 May 1.3 19:09:06 10° WNW 19:13:03 49° N 19:13:03 49° N visible
19 May 1.2 18:58:07 10° WNW 19:02:12 52° N 19:02:45 48° NNE visible
20 May 1.2 18:47:10 10° WNW 18:51:14 53° N 18:52:27 38° NE visible
21 May 1.3 18:36:13 10° WNW 18:40:17 53° N 18:42:11 28° ENE visible
21 May 4.1 20:17:24 10° W 20:17:30 11° W 20:17:30 11° W visible
22 May 1.3 18:25:17 10° W 18:29:21 52° N 18:31:58 20° ENE visible
22 May 3.8 20:06:34 10° WNW 20:07:17 14° WNW 20:07:17 14° WNW visible
23 May 1.5 18:14:21 10° W 18:18:23 49° N 18:21:49 14° ENE visible
23 May 3.4 19:55:46 10° WNW 19:57:09 17° WNW 19:57:09 17° WNW visible
24 May 1.7 18:03:26 10° W 18:07:26 46° N 18:11:26 10° ENE visible
24 May 3.2 19:45:01 10° WNW 19:47:05 19° NW 19:47:05 19° NW visible
